Temp
72 78 78 74 59 58 56 64 77 77 68 76 75 72 72 80 78 67 85 84 81 77 79 81 80 80 80 79 79 78 78 78 78 79 79 79 79 79 79 79 79 80 81 81 81 81 81 80 80
73 81 76 69 54 49 58 72 74 82 81 77 76 68 70 80 89 81 80 84 80 78 78 79 80 80 80 79 78 78 78 78 78 78 79 79 79 79 79 79 80 80 81 81 81 81 80 80 80
73 79 64 59 54 54 57 73 78 86 82 73 70 74 88 83 88 86 86 83 82 78 78 79 79 79 79 79 78 78 78 78 78 79 79 79 79 78 78 79 79 80 81 81 81 80 80 80 80
72 67 67 54 54 64 68 75 81 84 91 91 88 82 90 94 90 88 86 85 81 77 78 79 79 79 79 79 79 78 78 78 78 79 79 78 78 78 78 79 79 80 81 81 80 80 80 80 80
69 62 52 51 57 67 75 80 83 82 88 89 87 80 82 90 90 89 86 87 80 76 77 78 78 79 79 79 79 78 78 78 78 79 79 78 78 78 78 78 79 80 80 80 80 79 79 79 79
59 61 47 52 58 70 77 82 83 84 88 87 83 82 80 91 88 88 89 87 81 77 77 78 79 79 79 79 78 78 78 78 78 78 78 78 78 78 78 78 79 79 79 79 79 79 78 78 78
54 52 48 53 60 67 76 84 81 84 86 87 89 78 82 88 90 91 90 85 81 79 76 76 79 79 79 78 78 78 78 78 77 77 77 78 78 78 78 78 78 78 78 78 78 78 78 78 77
63 56 53 60 60 63 78 84 84 82 85 95 95 79 77 87 92 92 87 83 81 78 76 75 78 80 76 76 78 78 78 77 77 77 77 77 78 77 78 77 78 78 78 78 78 78 77 77 77
67 53 53 58 63 67 79 78 89 92 89 87 86 79 82 88 90 89 83 82 81 80 77 76 75 75 75 75 78 77 78 78 77 77 77 76 73 74 76 76 77 78 78 78 78 77 77 77 77
60 55 58 65 69 69 77 80 85 85 84 79 77 78 80 82 79 84 82 80 79 78 78 78 77 75 76 81 75 74 77 75 74 74 74 72 72 72 78 77 78 78 78 77 77 77 77 77 72
60 57 64 70 74 76 77 78 85 84 84 82 75 73 77 81 81 81 83 83 81 81 82 81 80 79 79 76 73 73 73 72 72 73 73 71 75 74 76 73 74 72 76 73 75 73 73 71 71
57 66 68 70 76 75 75 80 80 83 82 89 82 80 77 77 82 86 84 83 82 83 83 81 80 80 79 78 77 75 75 74 72 73 73 71 71 72 74 74 73 71 72 70 71 71 73 72 75
61 65 70 74 75 75 77 77 77 78 88 91 84 84 83 81 83 87 86 84 84 83 83 83 82 80 79 79 79 79 78 78 77 76 75 73 72 73 75 74 73 72 73 72 72 73 74 74 76
64 67 69 72 73 74 73 75 77 80 86 87 86 83 83 84 84 83 81 82 80 80 83 83 83 80 80 77 80 79 80 80 79 79 78 77 74 74 75 75 75 74 75 75 75 74 76 75 75
65 60 67 70 72 71 72 68 73 80 83 82 83 84 80 77 78 85 83 80 83 80 84 82 83 82 80 81 79 79 83 82 81 81 78 79 77 76 76 74 74 75 75 77 75 76 75 74 75
56 59 53 66 71 74 69 59 73 79 77 78 82 78 78 70 71 83 85 85 85 82 81 82 87 82 79 79 80 80 80 80 83 82 80 80 78 78 76 74 73 75 75 75 75 74 73 73 73
52 46 53 60 71 69 68 60 72 76 75 74 77 79 79 68 67 78 77 78 79 81 82 81 82 81 79 78 79 79 79 78 79 81 80 78 80 80 76 75 75 75 75 74 73 73 72 72 73
45 48 55 57 67 69 62 62 70 74 74 74 74 76 79 79 77 72 73 71 77 77 83 81 81 79 79 77 77 77 77 78 78 78 80 80 79 80 77 75 74 74 73 73 72 71 72 72 72
55 54 55 62 69 65 60 62 67 71 70 71 70 74 75 78 78 72 66 64 73 80 78 78 77 75 75 75 74 75 74 75 76 77 79 79 78 78 75 74 74 73 72 72 72 71 71 73 74
54 53 56 63 69 66 60 60 68 69 69 70 71 73 73 76 78 75 73 72 74 73 74 77 77 75 76 74 75 76 75 76 79 78 77 77 77 76 76 73 73 73 72 71 71 69 67 64 65
53 52 57 57 66 67 61 55 62 69 69 72 73 74 75 75 75 76 77 76 76 74 75 75 76 76 76 77 76 76 79 78 77 76 75 75 76 76 75 74 73 71 70 69 69 67 65 63 64
42 59 61 62 57 48 64 47 54 65 64 71 71 71 73 78 79 76 75 74 76 75 76 75 75 75 76 76 74 74 72 71 72 72 73 74 76 73 74 71 69 70 70 67 68 67 66 64 62
48 60 60 61 57 54 57 48 57 63 60 64 66 72 72 75 77 75 76 77 76 77 76 75 75 75 76 75 74 73 72 71 70 71 71 71 71 71 73 71 69 69 69 68 68 67 66 68 67
60 57 59 59 57 47 55 48 51 59 64 63 67 71 74 75 75 78 79 78 77 77 76 74 74 73 75 75 74 73 72 72 70 68 67 67 67 67 68 70 68 68 67 66 65 65 66 66 66
56 50 40 39 43 41 58 52 50 66 67 67 68 70 72 74 74 79 75 74 74 75 74 75 73 71 72 71 72 69 69 68 66 66 66 65 64 64 64 65 64 64 64 64 62 62 63 62 61
52 50 40 35 36 42 58 46 56 69 75 75 76 74 72 71 72 74 77 75 73 76 77 74 69 68 69 69 69 69 68 65 65 65 63 64 63 63 64 65 65 64 64 63 61 61 60 60 60
49 47 56 46 48 42 48 55 65 69 71 73 72 71 69 69 71 73 72 69 73 71 70 69 68 68 68 67 67 67 67 68 68 67 68 66 66 67 63 63 62 62 62 60 58 57 58 57 58
49 57 44 47 37 34 46 52 52 61 67 70 71 65 67 70 69 69 67 68 69 68 69 69 69 67 67 67 67 65 65 65 65 64 62 60 60 60 59 59 58 58 58 58 57 56 56 55 55
49 45 48 49 49 38 37 49 62 61 69 69 69 68 67 66 68 68 68 68 69 69 69 68 67 65 65 64 63 62 62 64 61 59 58 57 57 57 58 58 58 58 56 55 54 54 55 53 53
55 51 50 43 44 49 44 46 66 65 65 71 67 68 68 68 66 66 67 67 67 67 67 66 65 65 64 63 61 59 59 57 56 55 55 56 55 56 57 58 58 58 55 53 52 51 52 51 51
MSLP
1010.19 1009.69 1009.74 1009.85 1010.06 1008.68 1007.18 1005.02 1003.54 1003.40 1004.52 1004.77 1005.38 1006.57 1005.93 1004.32 1003.62 1004.95 1005.00 1005.73 1006.74 1007.64 1008.29 1008.54 1008.83 1009.36 1009.86 1010.38 1010.98 1011.39 1011.79 1012.28 1012.64 1013.11 1013.33 1013.59 1013.77 1014.01 1014.33 1014.63 1014.74 1014.85 1015.09 1015.13 1015.17 1015.33 1015.45 1015.56 1015.66
1010.20 1009.81 1009.54 1009.49 1009.32 1008.51 1006.25 1004.34 1002.80 1000.99 1001.86 1003.74 1004.37 1007.79 1007.02 1002.90 1002.72 1004.55 1005.33 1006.27 1006.74 1007.65 1008.23 1008.70 1009.04 1009.54 1010.12 1010.61 1011.18 1011.70 1012.09 1012.54 1012.94 1013.31 1013.64 1013.87 1014.12 1014.27 1014.50 1014.78 1014.94 1015.08 1015.23 1015.37 1015.36 1015.36 1015.43 1015.57 1015.66
1010.49 1010.20 1010.04 1009.31 1008.56 1007.49 1005.69 1003.29 1001.06 1001.14 1000.87 1002.10 1004.08 1006.08 1001.81 1002.17 1002.87 1003.81 1005.09 1006.45 1006.95 1007.81 1008.28 1008.80 1009.15 1009.75 1010.37 1010.85 1011.39 1011.93 1012.28 1012.72 1013.18 1013.57 1013.87 1014.17 1014.48 1014.58 1014.70 1014.95 1015.17 1015.25 1015.31 1015.47 1015.49 1015.54 1015.57 1015.63 1015.71
1010.25 1010.11 1009.88 1008.56 1007.65 1005.75 1004.79 1002.04 1001.14 1000.76 1000.24 999.29 1000.01 1001.29 1000.79 1000.58 1001.80 1003.51 1005.34 1006.20 1006.77 1007.89 1008.38 1008.93 1009.28 1009.85 1010.44 1011.02 1011.61 1012.09 1012.52 1012.96 1013.37 1013.60 1013.91 1014.26 1014.61 1014.89 1014.93 1014.97 1015.18 1015.28 1015.36 1015.47 1015.56 1015.67 1015.68 1015.65 1015.72
1010.15 1009.97 1009.70 1008.44 1006.97 1005.16 1003.54 1001.68 1000.81 1000.31 999.96 999.55 999.26 1000.71 1000.85 1001.18 1002.23 1004.07 1005.26 1005.92 1006.75 1008.00 1008.48 1009.07 1009.48 1009.99 1010.50 1011.17 1011.66 1012.18 1012.61 1013.13 1013.50 1013.80 1014.11 1014.37 1014.59 1014.79 1015.01 1015.10 1015.11 1015.26 1015.38 1015.46 1015.55 1015.61 1015.67 1015.68 1015.66
1010.21 1009.23 1009.07 1008.09 1006.64 1004.66 1002.56 1001.10 1000.48 1000.33 999.31 999.68 999.87 1000.21 1001.48 1002.01 1002.71 1004.26 1005.12 1005.76 1006.92 1007.87 1008.60 1009.06 1009.71 1010.05 1010.61 1011.24 1011.82 1012.37 1012.85 1013.25 1013.58 1013.93 1014.23 1014.42 1014.61 1014.80 1014.93 1014.96 1015.06 1015.15 1015.19 1015.37 1015.45 1015.59 1015.67 1015.70 1015.70
1009.70 1009.08 1008.27 1007.35 1006.15 1004.20 1000.95 1000.63 1000.12 999.50 998.57 999.11 999.37 1000.79 1002.21 1002.68 1003.33 1004.25 1005.12 1006.42 1007.21 1008.22 1008.82 1009.18 1009.77 1010.40 1010.86 1011.30 1011.89 1012.38 1012.89 1013.25 1013.68 1013.92 1014.21 1014.40 1014.56 1014.71 1014.87 1014.93 1015.02 1015.17 1015.21 1015.27 1015.41 1015.48 1015.59 1015.68 1015.61
1008.89 1009.05 1007.87 1006.50 1005.13 1003.00 1000.74 1000.44 999.28 999.29 998.72 998.67 999.61 1001.34 1002.62 1002.98 1003.61 1004.46 1005.83 1006.97 1007.56 1008.55 1009.28 1009.80 1009.91 1010.38 1011.09 1011.57 1011.97 1012.41 1012.86 1013.17 1013.53 1013.87 1014.15 1014.42 1014.57 1014.69 1014.91 1015.01 1015.13 1015.19 1015.25 1015.24 1015.37 1015.42 1015.40 1015.47 1015.48
1008.17 1008.12 1006.29 1005.04 1004.42 1002.78 1000.70 1000.26 998.76 998.36 998.56 999.51 1000.52 1002.22 1003.21 1003.54 1003.65 1004.74 1006.35 1007.31 1008.11 1008.84 1009.43 1010.09 1010.54 1010.68 1011.07 1011.57 1012.17 1012.64 1013.07 1013.34 1013.62 1013.97 1014.25 1014.46 1014.62 1014.72 1014.87 1014.97 1015.02 1015.10 1015.11 1015.08 1015.24 1015.31 1015.32 1015.30 1015.14
1007.43 1006.35 1004.63 1004.73 1003.85 1002.43 1000.62 1000.34 999.34 998.67 998.69 1001.55 1002.15 1003.56 1003.35 1004.07 1004.73 1005.41 1006.41 1007.17 1007.95 1009.00 1009.56 1009.84 1010.46 1011.01 1011.22 1011.54 1012.26 1012.79 1013.08 1013.39 1013.73 1013.83 1014.06 1014.36 1014.47 1014.60 1014.59 1014.71 1014.76 1014.89 1014.98 1014.99 1014.99 1014.93 1015.01 1015.00 1014.91
1006.32 1004.84 1004.93 1004.07 1003.11 1002.17 1000.79 1000.08 999.33 999.14 998.50 1000.26 1002.10 1003.48 1003.75 1003.63 1004.49 1005.43 1006.25 1006.68 1007.24 1008.44 1009.28 1009.74 1010.04 1010.42 1010.99 1011.59 1012.32 1012.88 1013.15 1013.38 1013.65 1013.74 1013.94 1014.08 1014.17 1014.35 1014.46 1014.58 1014.66 1014.69 1014.50 1014.59 1014.71 1014.79 1014.73 1014.64 1014.62
1006.26 1005.10 1004.65 1003.75 1002.82 1002.09 1000.91 1000.05 999.37 998.66 997.64 998.39 1000.80 1002.18 1003.35 1003.74 1003.72 1003.92 1005.20 1005.93 1006.73 1007.53 1008.59 1009.49 1009.84 1010.23 1010.51 1011.10 1011.74 1012.30 1012.94 1013.17 1013.44 1013.50 1013.66 1013.94 1014.11 1014.26 1014.30 1014.32 1014.28 1014.53 1014.52 1014.59 1014.54 1014.66 1014.60 1014.50 1014.22
1005.51 1004.83 1004.21 1003.53 1002.53 1001.50 1000.97 1000.18 999.81 998.86 998.10 998.44 1000.35 1001.12 1002.07 1003.13 1003.52 1003.71 1004.16 1005.26 1006.05 1006.71 1007.67 1008.80 1009.36 1009.94 1010.46 1010.87 1011.31 1011.68 1012.20 1012.62 1012.77 1013.14 1013.39 1013.68 1013.96 1014.16 1013.85 1013.97 1014.26 1014.43 1014.51 1014.65 1014.56 1014.33 1014.06 1014.03 1014.00
1005.19 1004.75 1003.94 1003.02 1002.03 1001.54 1001.35 1000.33 1000.32 998.82 998.07 999.00 1000.10 1001.29 1001.91 1002.78 1003.38 1003.93 1004.50 1005.25 1005.98 1006.13 1006.88 1007.80 1008.47 1009.16 1010.09 1010.52 1011.01 1011.32 1011.63 1011.97 1012.34 1012.58 1012.81 1013.15 1013.40 1013.63 1013.62 1013.80 1013.86 1014.21 1014.32 1014.21 1014.11 1014.02 1013.85 1013.66 1013.50
1005.44 1004.63 1003.66 1002.55 1001.58 1001.11 1001.31 1000.74 1000.08 998.90 998.56 999.28 1000.14 1001.17 1002.38 1003.53 1004.57 1003.63 1004.50 1004.91 1005.40 1005.72 1006.44 1007.08 1007.54 1008.31 1009.30 1009.98 1010.54 1010.92 1010.99 1011.48 1011.90 1012.10 1012.37 1012.63 1012.80 1012.92 1013.25 1013.63 1013.67 1013.52 1013.64 1013.59 1013.71 1013.57 1013.54 1013.65 1013.56
1005.71 1004.71 1003.58 1001.74 1001.41 1000.57 1001.53 1000.87 999.93 999.01 999.57 999.70 1000.43 1002.01 1003.18 1004.91 1004.68 1003.29 1004.25 1004.18 1005.20 1006.19 1007.11 1007.20 1007.48 1008.08 1008.61 1009.27 1010.00 1010.62 1010.54 1010.96 1011.16 1011.54 1011.91 1012.21 1012.44 1012.56 1012.92 1013.50 1013.65 1013.50 1013.38 1013.40 1013.45 1013.52 1013.56 1013.62 1013.52
1005.65 1004.25 1002.70 1001.71 1000.75 1000.55 1000.84 1000.80 1000.04 999.45 999.77 1000.36 1000.46 1001.71 1003.89 1005.51 1007.58 1006.96 1005.94 1005.20 1005.51 1006.04 1006.64 1007.26 1007.65 1008.28 1008.56 1009.02 1009.54 1010.18 1010.50 1010.91 1011.08 1011.24 1011.55 1011.95 1012.24 1012.58 1012.92 1013.16 1013.04 1013.04 1013.21 1013.39 1013.34 1013.31 1013.54 1013.68 1013.65
1004.91 1003.67 1002.17 1001.33 1000.01 1000.28 1000.52 1000.71 1000.35 1000.05 1000.14 1000.52 1000.85 1001.52 1002.62 1003.69 1005.16 1005.55 1006.34 1007.05 1005.37 1006.86 1006.75 1007.39 1008.03 1008.16 1008.66 1009.16 1009.39 1010.02 1010.56 1010.95 1011.10 1011.40 1011.61 1011.81 1012.13 1012.37 1012.59 1012.74 1012.90 1012.88 1013.19 1013.26 1013.35 1013.37 1013.47 1013.68 1013.57
1004.66 1003.51 1001.93 1000.92 1000.03 1000.33 1000.59 1000.88 1000.75 1000.51 1000.52 1000.68 1000.92 1001.53 1002.30 1003.38 1003.98 1005.04 1006.87 1008.93 1007.90 1006.87 1006.76 1007.32 1008.05 1008.38 1008.98 1009.53 1009.75 1010.05 1010.62 1010.93 1011.14 1011.35 1011.36 1011.60 1011.92 1012.23 1012.41 1012.71 1012.90 1013.02 1013.21 1013.16 1013.29 1013.44 1013.65 1013.85 1014.42
1004.65 1003.34 1001.82 1000.77 1000.11 1000.36 1000.98 1001.05 1000.90 1000.87 1000.73 1000.84 1001.24 1001.60 1002.22 1003.30 1004.11 1006.25 1007.50 1008.95 1008.83 1008.18 1007.46 1007.36 1008.36 1008.72 1009.08 1009.46 1009.43 1009.62 1010.23 1010.58 1010.71 1010.88 1011.10 1011.22 1011.43 1011.75 1012.11 1012.61 1013.15 1013.34 1013.45 1013.56 1013.88 1014.03 1014.28 1014.29 1014.40
1003.94 1002.90 1001.41 1000.69 1000.02 1000.54 1001.18 1001.71 1001.62 1001.03 1001.01 1000.88 1001.04 1001.44 1002.11 1002.80 1003.75 1005.02 1005.86 1006.77 1007.16 1008.17 1008.34 1008.12 1008.30 1008.54 1008.87 1009.46 1009.74 1009.65 1010.13 1010.51 1010.87 1011.20 1011.17 1011.21 1011.30 1011.68 1012.29 1012.79 1013.58 1014.26 1013.68 1014.09 1014.24 1014.40 1014.40 1014.44 1013.86
1004.29 1002.22 1001.28 1000.56 1000.14 1000.52 1000.66 1001.49 1001.92 1001.21 1001.27 1001.11 1001.22 1001.82 1002.05 1002.50 1002.99 1004.10 1005.26 1006.22 1006.70 1007.13 1007.53 1007.97 1008.33 1008.70 1009.12 1009.57 1009.70 1009.91 1010.54 1011.15 1011.20 1011.56 1011.64 1011.83 1011.65 1012.13 1012.59 1013.18 1013.82 1014.23 1013.80 1013.75 1014.02 1013.98 1014.05 1014.09 1013.39
1002.97 1002.34 1001.26 1000.64 1000.58 1000.84 1001.09 1002.17 1001.53 1001.30 1001.52 1001.32 1001.34 1001.62 1001.98 1002.22 1002.77 1003.73 1004.56 1005.52 1006.26 1006.77 1007.41 1008.13 1008.70 1009.26 1009.33 1009.63 1009.53 1010.22 1010.82 1011.35 1011.73 1011.78 1012.16 1012.74 1013.08 1012.96 1013.03 1013.60 1013.91 1013.84 1013.78 1013.97 1014.02 1014.02 1013.66 1013.65 1013.69
1002.88 1002.44 1001.46 1001.07 1000.75 1001.08 1000.55 1001.07 1001.27 1000.27 1000.33 1001.17 1001.27 1001.63 1002.12 1002.22 1002.93 1003.64 1004.10 1004.71 1005.50 1006.12 1006.88 1007.80 1008.49 1009.11 1009.28 1009.43 1010.04 1010.81 1011.48 1011.88 1012.20 1012.80 1013.00 1013.74 1013.89 1013.80 1013.65 1013.44 1013.82 1013.75 1014.09 1014.05 1014.09 1014.07 1014.03 1014.03 1013.80
1002.86 1002.56 1001.94 1001.53 1000.70 1000.53 1000.20 1000.84 999.81 999.73 1000.04 1000.45 1000.97 1001.53 1002.09 1002.38 1003.03 1003.73 1004.56 1005.15 1005.35 1006.03 1007.02 1007.80 1008.53 1009.24 1009.66 1010.43 1010.96 1011.75 1012.23 1012.83 1013.33 1013.74 1013.93 1014.23 1014.46 1014.49 1014.30 1014.18 1014.12 1014.18 1014.31 1014.50 1014.47 1014.30 1014.32 1014.36 1014.35
1002.50 1002.50 1001.84 1001.04 1000.55 1001.08 1000.17 999.94 999.09 998.97 999.04 999.63 1000.53 1001.40 1002.21 1002.81 1003.11 1003.94 1004.69 1004.87 1005.27 1006.36 1007.38 1008.60 1009.62 1010.63 1011.12 1011.60 1012.14 1012.58 1013.18 1013.84 1014.30 1014.62 1015.00 1014.99 1015.28 1015.30 1015.14 1014.93 1014.94 1014.80 1014.63 1014.71 1014.64 1014.66 1014.70 1014.67 1014.60
1002.40 1001.97 1001.50 1001.14 1001.03 1001.14 1000.15 999.48 999.05 998.92 999.12 999.96 1000.84 1001.77 1002.65 1003.25 1003.67 1004.16 1004.67 1005.89 1006.61 1007.89 1008.98 1009.88 1010.92 1011.65 1012.16 1012.69 1013.15 1013.76 1014.07 1014.29 1014.91 1015.40 1015.58 1015.77 1015.99 1016.01 1015.94 1015.82 1015.78 1015.61 1015.54 1015.47 1015.42 1015.44 1015.61 1015.31 1015.10
1003.17 1001.78 1002.29 1001.34 1001.37 1001.39 1000.68 999.87 998.69 998.22 998.70 999.78 1000.87 1002.06 1003.11 1003.63 1004.44 1005.53 1006.49 1007.38 1008.26 1009.09 1010.10 1011.21 1011.79 1012.53 1013.17 1013.49 1014.03 1014.56 1015.09 1015.38 1015.73 1016.09 1016.37 1016.50 1016.53 1016.50 1016.47 1016.39 1016.33 1016.23 1016.24 1016.36 1016.28 1016.24 1016.12 1015.86 1015.75
1002.70 1002.49 1001.82 1000.55 1000.69 1000.87 1000.86 999.69 998.21 997.83 998.04 999.59 1001.00 1002.19 1003.21 1004.48 1005.67 1006.71 1007.84 1008.81 1009.25 1010.22 1011.09 1012.06 1012.87 1013.50 1013.99 1014.53 1015.08 1015.47 1015.87 1016.01 1016.38 1016.83 1017.06 1017.14 1017.16 1017.08 1016.99 1016.80 1016.62 1016.65 1017.06 1017.12 1016.92 1016.83 1016.75 1016.55 1016.13
1001.75 1001.23 1001.12 1000.86 1000.90 1000.50 1000.54 1000.28 998.27 998.50 999.06 999.97 1001.43 1002.52 1003.99 1005.24 1006.83 1007.86 1009.14 1010.06 1010.64 1011.43 1012.14 1012.92 1013.77 1014.29 1014.91 1015.48 1015.92 1016.41 1016.70 1016.89 1017.20 1017.50 1017.60 1017.63 1017.63 1017.47 1017.31 1017.18 1017.12 1017.51 1017.70 1017.85 1017.81 1017.74 1017.45 1017.11 1016.75
Wind_Speed
8 8 3 2 2 2 7 10 13 10 3 13 16 4 13 13 3 6 12 19 21 16 13 15 20 20 20 19 18 17 18 17 16 14 14 14 14 13 13 12 11 12 12 13 13 13 11 10 8
6 7 2 4 3 4 8 12 20 20 13 21 25 24 23 14 12 17 12 17 20 16 12 13 20 20 19 18 18 17 17 17 16 15 13 13 12 12 12 11 11 11 12 11 12 11 10 8 6
4 4 1 5 5 10 7 16 21 9 26 19 19 35 8 13 21 6 21 20 19 15 13 14 20 19 19 18 17 17 17 17 16 15 13 12 10 10 10 10 9 9 11 10 9 8 8 7 4
3 2 5 3 11 13 19 20 15 16 19 7 16 10 8 15 9 16 23 21 19 15 14 18 20 20 20 19 17 17 16 16 15 15 13 12 11 9 9 10 9 8 9 9 7 6 6 5 3
2 3 4 6 12 17 19 21 21 19 15 3 17 8 6 14 29 25 22 20 20 15 13 14 20 19 20 18 18 17 16 15 15 14 13 12 11 10 8 8 9 8 7 8 6 5 4 3 1
3 4 3 14 11 18 22 21 19 12 7 12 13 15 7 24 27 22 20 19 18 17 13 13 17 19 20 19 17 16 15 14 14 13 12 12 11 9 8 9 8 8 8 7 6 5 4 4 3
4 2 5 7 17 20 25 15 15 17 10 11 13 16 10 17 21 21 19 19 18 16 13 12 14 15 17 18 17 16 15 14 13 13 12 11 11 10 8 8 8 7 8 7 7 6 6 6 6
4 3 9 13 15 18 23 17 12 8 2 15 10 7 15 17 20 18 18 17 18 14 12 10 13 14 10 10 16 16 16 15 14 13 12 10 9 9 8 8 7 7 7 7 7 8 8 8 9
5 6 14 21 19 17 15 8 15 11 6 10 9 11 11 11 16 18 19 16 14 12 11 11 9 10 9 9 10 12 14 13 12 10 10 8 4 5 7 7 9 9 9 8 8 8 9 10 11
9 13 21 6 10 12 21 13 20 2 2 7 16 13 18 15 7 13 17 15 15 12 11 11 10 8 9 9 8 6 8 5 5 6 7 5 6 6 8 9 12 12 10 9 10 11 11 10 5
8 19 7 14 17 15 20 15 12 9 21 17 22 19 20 23 8 7 16 19 19 16 10 11 12 11 10 9 5 3 3 4 4 7 6 6 5 5 5 3 4 5 10 5 6 6 6 6 5
14 18 17 11 21 20 22 14 13 11 10 25 27 29 18 20 20 23 19 19 21 20 17 12 11 10 9 9 8 7 5 5 4 6 8 5 4 4 4 4 6 4 3 5 5 4 7 7 8
21 16 14 18 23 19 14 17 12 9 7 17 25 22 24 21 13 15 18 18 21 20 19 16 15 10 9 11 8 8 8 7 8 7 7 5 4 5 4 5 4 4 4 4 5 6 7 7 8
9 19 17 16 22 18 15 14 7 7 7 18 25 21 20 16 9 6 10 16 17 16 21 19 17 12 12 8 9 8 7 8 7 7 8 9 5 5 3 4 4 4 4 5 5 6 8 7 6
18 14 17 19 20 18 7 13 10 9 6 15 18 15 11 10 16 9 18 19 20 16 20 21 18 14 13 9 8 5 8 8 7 8 9 10 7 6 4 3 2 3 3 5 4 5 4 4 3
14 13 14 22 18 19 9 15 9 8 3 10 11 15 17 18 16 17 6 20 20 17 17 17 15 13 9 8 5 4 3 4 4 5 7 11 8 7 3 2 2 4 4 4 4 4 3 4 4
11 11 19 18 18 8 13 7 8 7 3 5 8 10 23 31 33 21 15 10 12 15 18 15 13 13 9 8 6 3 0 1 1 1 3 5 4 3 4 2 4 3 3 4 4 2 2 3 5
13 16 15 19 20 16 8 8 7 9 5 6 6 8 9 10 15 8 14 24 18 3 11 12 10 10 8 5 5 3 2 1 1 3 3 5 4 4 4 4 4 4 3 4 3 2 2 3 4
16 13 17 16 14 12 8 9 10 7 5 7 6 7 5 8 12 16 21 6 15 17 9 8 10 8 6 3 4 4 3 3 2 3 5 5 3 4 5 4 4 4 4 5 4 1 1 4 14
19 19 17 12 13 16 7 9 10 7 7 8 8 7 5 8 13 28 26 30 15 11 8 9 5 6 5 3 3 3 3 3 4 4 4 7 7 6 5 4 3 4 3 5 5 6 3 2 6
21 20 15 10 16 13 8 3 11 11 3 8 8 8 6 10 12 15 16 15 12 15 9 6 7 7 7 5 2 2 3 2 2 1 3 4 6 4 2 2 6 7 4 3 3 2 2 2 3
18 18 17 16 8 8 14 12 6 13 6 12 10 10 8 8 12 10 14 13 14 8 7 7 6 6 4 5 2 3 2 1 2 2 2 5 3 5 4 5 4 9 5 3 3 2 3 3 3
19 18 15 14 15 7 15 8 13 11 10 10 9 11 8 9 14 10 13 13 11 12 10 9 9 7 6 5 4 2 1 1 2 4 6 8 8 10 9 9 6 6 4 4 5 5 4 3 4
17 19 12 12 10 10 18 8 11 16 17 7 7 7 8 9 12 14 13 11 10 10 10 9 10 7 8 6 6 6 6 5 6 5 5 6 5 4 6 7 5 7 5 6 6 6 6 6 4
19 11 4 4 9 4 17 11 9 21 11 9 10 9 8 8 12 14 11 8 8 8 10 10 10 8 10 11 11 11 12 12 10 7 6 6 4 4 6 6 7 5 6 6 6 6 7 7 6
15 9 3 5 6 7 17 9 16 14 19 19 16 12 8 7 9 11 16 10 9 15 15 13 16 14 15 15 14 12 13 8 7 10 7 7 5 4 6 6 7 7 7 7 7 5 6 7 7
8 10 20 3 6 2 5 4 5 13 15 17 15 11 9 8 9 9 7 17 19 16 18 19 17 15 14 14 12 12 11 13 11 11 10 8 10 9 11 11 10 10 9 8 7 5 9 8 8
15 3 6 5 8 7 7 15 6 13 21 17 19 10 10 9 11 18 19 20 19 18 17 17 16 15 12 14 12 12 11 12 12 10 10 10 8 8 8 7 7 7 7 10 10 8 9 9 8
8 12 7 3 6 6 6 9 8 10 19 21 17 14 11 16 20 19 20 17 19 18 18 16 15 15 14 13 11 11 10 12 10 9 8 7 7 7 7 7 7 8 11 10 10 10 11 10 9
10 12 8 4 3 2 6 4 10 15 14 16 11 17 23 24 22 21 20 18 17 16 15 15 14 14 12 10 11 10 10 9 8 7 7 7 7 7 7 7 8 12 10 9 9 8 8 9 9
Wind_Direction
299 285 272 310 28 205 251 250 261 253 151 157 100 45 242 229 222 144 118 124 123 126 133 131 129 129 128 128 126 126 121 120 116 112 113 111 111 111 109 109 112 112 111 109 106 100 96 91 81
301 310 229 270 181 249 259 254 258 260 158 150 124 249 257 92 93 120 106 126 123 127 128 131 130 129 128 128 127 127 123 122 120 121 120 117 118 116 115 117 115 114 115 114 110 110 107 99 88
277 235 106 178 214 227 252 258 257 321 151 157 146 219 128 125 125 102 126 127 124 120 127 133 130 128 127 126 129 129 127 127 126 126 125 122 119 119 118 114 114 119 120 121 121 120 114 108 100
256 320 299 211 245 238 238 263 279 287 296 133 115 93 92 124 115 129 130 131 118 119 129 134 132 131 130 130 133 131 129 130 134 136 134 129 125 121 121 121 125 129 129 135 133 125 123 121 111
219 264 222 221 251 261 258 252 258 268 257 208 112 109 71 103 114 127 132 133 121 121 128 132 131 132 131 134 137 135 134 137 138 138 136 133 133 135 136 134 137 143 142 144 147 150 153 150 176
265 169 203 226 240 246 258 258 270 292 171 112 99 117 104 123 127 136 135 131 123 126 128 134 135 136 136 138 137 135 136 139 142 142 141 141 143 144 149 152 157 161 160 164 166 174 186 206 241
214 270 226 246 223 254 249 251 259 265 201 49 112 113 138 126 130 133 138 119 120 124 128 128 137 135 138 139 139 139 141 145 147 148 152 153 155 155 164 169 171 173 173 178 190 196 213 230 243
172 243 250 236 243 251 251 259 249 247 208 114 107 133 146 137 126 129 111 120 122 120 121 130 141 145 138 142 146 148 152 153 155 158 159 158 161 165 179 183 188 187 189 191 205 216 221 233 246
247 222 233 231 227 247 273 266 251 241 86 52 60 80 96 110 124 122 120 124 121 128 137 138 143 142 138 132 149 144 149 149 151 155 159 163 168 180 195 196 204 202 201 201 217 227 236 242 248
199 218 235 246 243 242 261 259 277 229 233 76 87 76 80 77 30 132 135 139 135 141 147 148 144 147 141 147 136 139 152 148 154 159 167 181 198 195 202 208 216 205 207 210 221 229 237 245 247
245 236 241 242 261 266 277 285 267 243 212 152 132 123 109 125 158 187 152 151 146 151 155 159 154 156 153 131 144 146 152 157 178 178 181 201 212 212 213 187 193 200 210 206 218 235 235 233 237
244 242 245 256 246 261 268 286 289 289 183 141 145 143 147 165 185 178 161 158 151 156 156 157 160 168 147 146 159 160 163 176 185 194 186 193 221 226 211 191 202 203 222 222 215 220 239 242 245
234 242 240 245 258 265 279 269 276 304 219 143 139 150 161 176 205 169 159 161 155 158 157 160 163 167 149 151 166 166 171 182 190 190 191 194 218 233 213 195 199 203 206 218 232 224 223 229 241
273 233 247 237 246 256 264 284 292 293 132 117 139 153 161 171 193 143 151 159 160 155 157 158 165 155 154 157 174 174 173 193 188 190 193 198 199 227 240 232 209 184 219 229 240 225 227 223 223
262 256 239 243 241 242 249 289 231 246 111 137 144 141 90 49 331 178 176 152 164 156 156 159 163 161 150 167 186 183 190 190 189 189 189 198 201 214 228 227 250 268 249 253 241 255 283 271 281
275 248 232 238 235 235 156 256 246 252 110 142 136 124 107 86 328 303 199 163 157 149 153 156 161 158 146 142 144 151 167 157 180 178 186 196 200 204 145 99 339 295 295 279 270 256 274 279 271
253 244 221 235 219 234 184 233 236 260 251 168 167 140 139 151 177 249 7 96 123 143 144 146 150 161 150 146 136 152 146 18 274 30 117 164 147 157 142 170 237 266 285 270 241 280 243 283 294
225 219 215 218 213 212 195 195 238 251 234 204 174 148 153 155 178 91 51 319 109 71 135 119 151 151 143 136 131 125 181 254 222 116 103 117 146 172 184 233 242 251 272 296 287 273 341 264 269
238 251 221 218 212 196 201 168 222 245 204 195 182 157 183 150 144 109 119 292 299 157 116 118 125 152 142 144 145 145 177 202 188 157 154 162 167 200 207 218 237 257 268 252 263 316 346 7 355
241 244 218 220 227 186 193 189 223 242 222 176 173 182 217 143 125 153 155 177 137 325 286 121 142 141 154 138 157 145 147 213 187 187 190 194 203 208 216 225 253 259 287 313 344 31 17 40 41
242 235 217 204 211 189 143 219 207 232 229 189 162 180 205 164 138 135 134 139 141 166 185 167 168 153 142 148 141 84 85 44 98 192 221 226 200 197 274 284 21 339 329 343 63 142 124 311 256
258 239 245 207 200 188 164 201 234 213 218 181 172 183 209 149 143 131 127 131 144 153 157 163 159 150 155 159 118 97 98 60 264 34 40 28 55 61 30 66 32 246 277 305 308 150 228 206 285
238 250 230 246 207 153 181 141 215 206 213 202 178 179 199 163 152 139 139 148 156 153 162 156 146 156 167 155 127 128 87 309 8 33 53 69 57 46 47 53 42 37 2 328 341 334 333 308 285
247 255 245 241 198 213 183 124 208 207 194 172 163 165 185 163 145 149 159 153 166 164 157 137 134 137 115 130 125 106 78 49 42 33 62 59 37 32 30 54 39 50 22 23 10 358 359 3 357
241 235 238 206 193 169 171 177 221 198 179 168 167 193 195 172 138 155 149 164 176 155 114 113 105 75 63 60 64 70 66 63 62 45 56 74 60 32 31 30 33 32 28 31 17 24 27 18 12
237 202 265 146 132 176 159 197 220 203 191 177 170 188 176 174 141 149 158 175 154 124 112 88 81 76 76 75 71 67 62 59 49 61 58 52 55 46 38 43 33 26 25 29 24 19 16 4 5
296 197 220 110 109 88 187 302 217 208 203 169 163 159 174 152 135 137 114 73 87 91 90 93 90 85 77 77 75 74 72 72 69 60 52 51 41 35 30 31 31 25 38 28 19 18 20 19 11
223 260 220 244 167 155 187 215 226 187 198 165 162 137 135 131 83 85 86 94 91 88 90 87 86 86 84 80 74 69 65 64 64 56 51 47 40 36 32 28 29 17 26 33 33 20 13 14 2
187 237 239 200 155 142 153 214 208 142 144 148 149 144 138 98 97 92 96 90 95 94 94 92 85 84 78 76 75 72 67 64 60 55 45 44 38 29 24 22 26 35 51 33 32 19 11 2 354
243 222 224 103 252 242 135 270 122 107 105 139 124 100 100 101 100 101 101 104 102 100 94 92 92 88 83 76 72 66 60 55 56 51 38 36 40 27 24 20 21 60 48 35 31 15 359 354 345